| time (UTC) | temp F | wind direction | speed knots | gust knots | rain 1hr in | rain 24hr in | rain mn in | humidity % | barometer mb |
| 20260509211523 | 61 | 284 | 1.7 | 6.1 | 0.00 | 0.54 | 0.34 | 75 | 1004.8 |
| 20260509210029 | 60 | 258 | 4.3 | 9.6 | 0.00 | 0.54 | 0.34 | 78 | 1004.9 |
| 20260509204600 | 59 | 133 | 1.7 | 7.8 | 0.00 | 0.54 | 0.34 | 81 | 1005.2 |
| 20260509203056 | 58 | 251 | 0.9 | 7.8 | 0.00 | 0.54 | 0.34 | 83 | 1005.4 |
| 20260509201546 | 57 | 257 | 1.7 | 9.6 | 0.00 | 0.54 | 0.34 | 84 | 1005.7 |
| 20260509200037 | 56 | 213 | 1.7 | 7.8 | 0.00 | 0.54 | 0.34 | 85 | 1005.7 |
| 20260509194523 | 57 | 193 | 2.6 | 7.8 | 0.00 | 0.54 | 0.34 | 85 | 1005.9 |
| 20260509191517 | 55 | 185 | 2.6 | 10.4 | 0.00 | 0.54 | 0.34 | 90 | 1006.3 |
| 20260509190014 | 54 | 177 | 0.9 | 6.1 | 0.00 | 0.54 | 0.34 | 91 | 1006.4 |
| 20260509184521 | 53 | 283 | 2.6 | 6.1 | 0.00 | 0.54 | 0.34 | 91 | 1006.4 |
| 20260509183014 | 53 | 285 | 3.5 | 10.4 | 0.00 | 0.54 | 0.34 | 92 | 1006.3 |
| 20260509181510 | 53 | 206 | 0.9 | 3.5 | 0.00 | 0.54 | 0.34 | 92 | 1006.3 |
| 20260509180007 | 53 | 271 | 1.7 | 4.3 | 0.00 | 0.54 | 0.34 | 93 | 1006.2 |
| 20260509174554 | 52 | 301 | 2.6 | 5.2 | 0.00 | 0.54 | 0.34 | 94 | 1006.1 |
| 20260509173053 | 52 | 257 | 4.3 | 10.4 | 0.01 | 0.54 | 0.34 | 94 | 1006.1 |
| 20260509171555 | 52 | 262 | 3.5 | 7.0 | 0.01 | 0.54 | 0.34 | 94 | 1006.1 |
| 20260509170057 | 52 | 278 | 1.7 | 8.7 | 0.02 | 0.54 | 0.34 | 94 | 1006.0 |
| 20260509164551 | 51 | 264 | 4.3 | 9.6 | 0.04 | 0.54 | 0.34 | 94 | 1006.0 |
| 20260509163046 | 51 | 248 | 0.9 | 4.3 | 0.04 | 0.53 | 0.33 | 95 | 1005.9 |
| 20260509161555 | 51 | 248 | 0.9 | 7.0 | 0.05 | 0.53 | 0.33 | 95 | 1005.8 |
| 20260509160044 | 51 | 235 | 0.0 | 8.7 | 0.05 | 0.52 | 0.32 | 95 | 1005.8 |
| 20260509154525 | 51 | 283 | 0.9 | 5.2 | 0.04 | 0.50 | 0.30 | 95 | 1005.9 |
| 20260509153024 | 51 | 235 | 0.9 | 4.3 | 0.03 | 0.49 | 0.28 | 95 | 1005.9 |
| 20260509151512 | 51 | 237 | 0.9 | 4.3 | 0.03 | 0.48 | 0.28 | 95 | 1005.9 |
| 20260509150016 | 50 | 305 | 0.9 | 3.5 | 0.04 | 0.47 | 0.27 | 95 | 1006.1 |
| 20260509144508 | 50 | 255 | 0.9 | 3.5 | 0.03 | 0.46 | 0.26 | 95 | 1006.1 |
| 20260509143007 | 50 | 158 | 0.9 | 5.2 | 0.03 | 0.46 | 0.26 | 95 | 1006.2 |
| 20260509141508 | 49 | 264 | 1.7 | 5.2 | 0.02 | 0.45 | 0.25 | 95 | 1006.3 |
| 20260509140002 | 49 | 281 | 0.9 | 3.5 | 0.00 | 0.43 | 0.23 | 96 | 1006.3 |
| 20260509134628 | 49 | 275 | 1.7 | 5.2 | 0.00 | 0.43 | 0.23 | 96 | 1006.4 |
| 20260509133100 | 49 | 359 | 0.9 | 3.5 | 0.01 | 0.43 | 0.23 | 96 | 1006.5 |
| 20260509131556 | 49 | 288 | 1.7 | 7.8 | 0.01 | 0.43 | 0.23 | 96 | 1006.6 |
| 20260509130052 | 48 | 201 | 0.9 | 4.3 | 0.01 | 0.43 | 0.23 | 96 | 1006.7 |
| 20260509124532 | 48 | 201 | 0.0 | 4.3 | 0.02 | 0.43 | 0.23 | 97 | 1006.8 |
| 20260509123032 | 48 | 208 | 0.9 | 2.6 | 0.01 | 0.42 | 0.22 | 96 | 1006.7 |
| 20260509121630 | 47 | 206 | 0.9 | 1.7 | 0.03 | 0.42 | 0.22 | 96 | 1006.9 |
| 20260509120016 | 47 | 208 | 0.0 | 2.6 | 0.03 | 0.43 | 0.22 | 97 | 1006.9 |
| 20260509114523 | 47 | 208 | 0.0 | 0.9 | 0.04 | 0.42 | 0.21 | 96 | 1007.0 |
| 20260509113013 | 47 | 205 | 0.0 | 1.7 | 0.04 | 0.42 | 0.21 | 96 | 1007.1 |
| 20260509111510 | 47 | 208 | 0.0 | 1.7 | 0.04 | 0.40 | 0.19 | 96 | 1007.3 |
| 20260509110009 | 46 | 208 | 0.9 | 2.6 | 0.05 | 0.40 | 0.19 | 96 | 1007.1 |
| 20260509104507 | 46 | 210 | 0.0 | 1.7 | 0.04 | 0.38 | 0.17 | 96 | 1007.4 |
| 20260509103007 | 46 | 209 | 0.0 | 0.9 | 0.05 | 0.38 | 0.17 | 96 | 1007.5 |
| 20260509101506 | 46 | 208 | 0.9 | 1.7 | 0.05 | 0.36 | 0.15 | 96 | 1007.5 |
| 20260509100054 | 46 | 208 | 0.0 | 1.7 | 0.05 | 0.35 | 0.14 | 96 | 1007.5 |
| 20260509094553 | 46 | 208 | 0.0 | 0.9 | 0.05 | 0.34 | 0.13 | 96 | 1007.4 |
| 20260509093057 | 46 | 208 | 0.0 | 0.9 | 0.04 | 0.33 | 0.12 | 96 | 1007.6 |
| 20260509091554 | 46 | 208 | 0.0 | 1.7 | 0.03 | 0.31 | 0.10 | 96 | 1007.6 |
| 20260509090051 | 46 | 209 | 0.0 | 1.7 | 0.02 | 0.30 | 0.09 | 96 | 1007.6 |
| 20260509084551 | 46 | 208 | 0.0 | 0.9 | 0.01 | 0.28 | 0.08 | 96 | 1007.7 |
| 20260509083049 | 46 | 208 | 0.9 | 1.7 | 0.03 | 0.28 | 0.08 | 96 | 1007.7 |
| 20260509081550 | 46 | 208 | 0.0 | 2.6 | 0.03 | 0.28 | 0.07 | 95 | 1007.8 |
| 20260509080031 | 46 | 201 | 0.0 | 0.0 | 0.03 | 0.28 | 0.07 | 96 | 1007.7 |
| 20260509074528 | 46 | 203 | 0.0 | 0.9 | 0.03 | 0.28 | 0.07 | 95 | 1007.7 |
| 20260509073010 | 46 | 202 | 0.0 | 0.9 | 0.01 | 0.26 | 0.05 | 95 | 1007.9 |
| 20260509071507 | 46 | 201 | 0.0 | 0.9 | 0.01 | 0.25 | 0.04 | 95 | 1008.1 |
| 20260509070049 | 46 | 202 | 0.0 | 0.9 | 0.03 | 0.25 | 0.04 | 95 | 1008.2 |
| 20260509064558 | 46 | 202 | 0.0 | 0.9 | 0.03 | 0.25 | 0.04 | 95 | 1008.3 |
| 20260509063028 | 46 | 202 | 0.0 | 0.9 | 0.03 | 0.25 | 0.04 | 95 | 1008.4 |
| 20260509061527 | 46 | 201 | 0.0 | 1.7 | 0.03 | 0.24 | 0.03 | 95 | 1008.8 |
| 20260509054504 | 46 | 201 | 0.0 | 1.7 | 0.02 | 0.22 | 0.01 | 95 | 1009.6 |
| 20260509053051 | 46 | 202 | 0.0 | 0.9 | 0.02 | 0.22 | 0.01 | 94 | 1009.6 |
| 20260509051551 | 46 | 201 | 0.0 | 1.7 | 0.03 | 0.21 | 0.00 | 94 | 1009.9 |
| 20260509050048 | 46 | 201 | 0.0 | 1.7 | 0.04 | 0.22 | 0.21 | 94 | 1009.9 |
| 20260509044549 | 46 | 203 | 0.9 | 2.6 | 0.04 | 0.21 | 0.20 | 94 | 1010.0 |
| 20260509043055 | 47 | 204 | 0.0 | 0.9 | 0.04 | 0.21 | 0.20 | 94 | 1010.2 |
| 20260509041548 | 47 | 204 | 0.0 | 1.7 | 0.03 | 0.19 | 0.18 | 94 | 1010.4 |
| 20260509040047 | 47 | 204 | 0.0 | 2.6 | 0.03 | 0.18 | 0.17 | 94 | 1010.4 |
| 20260509034552 | 47 | 204 | 0.0 | 1.7 | 0.03 | 0.17 | 0.16 | 94 | 1010.3 |
| 20260509033029 | 47 | 204 | 0.0 | 1.7 | 0.04 | 0.17 | 0.16 | 94 | 1010.3 |
| 20260509031530 | 47 | 203 | 0.0 | 1.7 | 0.04 | 0.16 | 0.15 | 94 | 1010.3 |
| 20260509030021 | 47 | 204 | 0.0 | 2.6 | 0.03 | 0.15 | 0.14 | 93 | 1010.2 |
| 20260509024517 | 47 | 234 | 0.0 | 1.7 | 0.03 | 0.14 | 0.13 | 93 | 1010.6 |
| 20260509023017 | 47 | 233 | 0.9 | 1.7 | 0.03 | 0.13 | 0.12 | 93 | 1010.6 |
| 20260509021520 | 48 | 235 | 0.0 | 0.9 | 0.04 | 0.12 | 0.11 | 93 | 1010.4 |
| 20260509020015 | 48 | 233 | 0.0 | 1.7 | 0.06 | 0.11 | 0.10 | 92 | 1010.4 |
| 20260509014515 | 48 | 234 | 0.0 | 1.7 | 0.08 | 0.11 | 0.10 | 91 | 1010.5 |
| 20260509013016 | 49 | 234 | 0.0 | 1.7 | 0.08 | 0.10 | 0.09 | 91 | 1010.6 |
| 20260509011514 | 49 | 234 | 0.0 | 1.7 | 0.06 | 0.08 | 0.07 | 89 | 1010.5 |
| 20260509010101 | 50 | 235 | 0.0 | 4.3 | 0.03 | 0.06 | 0.04 | 85 | 1010.1 |
| 20260509004619 | 51 | 225 | 0.0 | 3.5 | 0.01 | 0.04 | 0.02 | 84 | 1009.9 |
| 20260509003037 | 51 | 222 | 0.0 | 2.6 | 0.00 | 0.03 | 0.01 | 82 | 1009.6 |
| 20260509001545 | 51 | 224 | 0.0 | 2.6 | 0.00 | 0.03 | 0.01 | 82 | 1009.6 |
| 20260509000024 | 51 | 222 | 0.9 | 3.5 | 0.00 | 0.03 | 0.01 | 82 | 1009.5 |
| 20260508234527 | 51 | 222 | 0.9 | 3.5 | 0.00 | 0.03 | 0.01 | 82 | 1009.4 |
| 20260508233024 | 52 | 262 | 0.0 | 7.0 | 0.00 | 0.03 | 0.01 | 81 | 1009.4 |
| 20260508231523 | 52 | 273 | 1.7 | 7.8 | 0.00 | 0.03 | 0.01 | 80 | 1009.3 |
| 20260508230023 | 53 | 147 | 3.5 | 7.8 | 0.00 | 0.03 | 0.01 | 76 | 1009.2 |
| 20260508224622 | 54 | 205 | 5.2 | 8.7 | 0.00 | 0.03 | 0.01 | 74 | 1009.0 |
| 20260508223034 | 54 | 270 | 5.2 | 10.4 | 0.00 | 0.03 | 0.01 | 72 | 1008.8 |
| 20260508221521 | 54 | 228 | 4.3 | 9.6 | 0.00 | 0.03 | 0.01 | 71 | 1008.7 |
| 20260508220004 | 54 | 227 | 7.8 | 14.8 | 0.00 | 0.03 | 0.01 | 70 | 1008.8 |
| 20260508214507 | 53 | 253 | 2.6 | 8.7 | 0.00 | 0.03 | 0.01 | 76 | 1008.9 |
| 20260508213046 | 53 | 264 | 3.5 | 9.6 | 0.00 | 0.03 | 0.01 | 77 | 1008.8 |